This is the latest recevied weather packets stored in our database for station/object KI7MOQ. If no packets are shown the sender has not sent any weather packets the latest 10 day(s).
| Time | Temp. | Humidity | Pressure | Rain* | Wind** | Luminosity | Snow |
|---|---|---|---|---|---|---|---|
| 1777846153 | 31.67° C | 30% | 1010.8 hPa | 0 mm | - | 72 W/m² | - |
| 1777845850 | 31.67° C | 29% | 1010.8 hPa | 0 mm | - | 102 W/m² | - |
| 1777845547 | 31.67° C | 29% | 1011 hPa | 0 mm | - | 66 W/m² | - |
| 1777845244 | 31.67° C | 29% | 1011 hPa | 0 mm | - | 86 W/m² | - |
| 1777844941 | 31.67° C | 29% | 1011.1 hPa | 0 mm | - | 140 W/m² | - |
| 1777844639 | 31.67° C | 29% | 1011.1 hPa | 0 mm | - | 96 W/m² | - |
| 1777844336 | 31.11° C | 32% | 1011.2 hPa | 0 mm | - | 56 W/m² | - |
| 1777844034 | 31.11° C | 30% | 1011.2 hPa | 0 mm | - | 28 W/m² | - |
| 1777843730 | 30.56° C | 30% | 1011.4 hPa | 0 mm | - | 26 W/m² | - |
| 1777843428 | 30.56° C | 29% | 1011.2 hPa | 0 mm | - | 27 W/m² | - |
| 1777843125 | 30.56° C | 30% | 1011.4 hPa | 0 mm | - | 26 W/m² | - |
| 1777842822 | 30.56° C | 34% | 1011.5 hPa | 0 mm | - | 26 W/m² | - |
| 1777842517 | 30.56° C | 33% | 1011.6 hPa | 0 mm | - | 27 W/m² | - |
| 1777842215 | 30° C | 32% | 1011.5 hPa | 0 mm | - | 27 W/m² | - |
| 1777841909 | 30° C | 35% | 1011.7 hPa | 0 mm | - | 27 W/m² | - |
| 1777841606 | 30° C | 33% | 1011.8 hPa | 0 mm | - | 28 W/m² | - |
| 1777841303 | 30° C | 34% | 1011.8 hPa | 0 mm | - | 31 W/m² | - |
| 1777841000 | 30° C | 35% | 1011.9 hPa | 0 mm | - | 30 W/m² | - |
| 1777840697 | 29.44° C | 35% | 1011.8 hPa | 0 mm | - | 28 W/m² | - |
| 1777840395 | 29.44° C | 35% | 1011.9 hPa | 0 mm | - | 28 W/m² | - |
| 1777840092 | 29.44° C | 37% | 1012.1 hPa | 0 mm | - | 28 W/m² | - |
| 1777839790 | 29.44° C | 38% | 1011.9 hPa | 0 mm | - | 29 W/m² | - |
| 1777839488 | 28.89° C | 39% | 1012.2 hPa | 0 mm | - | 29 W/m² | - |
| 1777839184 | 28.89° C | 38% | 1012.2 hPa | 0 mm | - | 31 W/m² | - |
| 1777838882 | 28.89° C | 40% | 1012.1 hPa | 0 mm | - | 53 W/m² | - |
* Rain latest hour (hover to see other rain measurements)
** Current wind speed in m/s (hover to see current wind gust speed)